Simultaneous Nadir Overpasses (SNOs) Predictions

Prediction of SNOs between AQUA and METOP-B Satellite Orbit:

Table of predicted SNOs for the next 14.0 days since TLE Epoch: 6/14/2024
Index Date (AQUA) Time (AQUA) Lat,Lon (AQUA) SZA (AQUA ) Date (METOP-B) Time (METOP-B) Lat,Lon (METOP-B) SZA (METOP-B ) Distance(km) Time Diff (sec)
1 06/16/2024 07:32:07 -75.75,-115.41 127.68 06/16/2024 07:30:54 -75.71,-115.91 127.72 14.54 73
2 06/16/2024 08:21:32 75.86, 51.92 52.43 06/16/2024 08:21:30 75.87, 51.96 52.45 2.16 2
3 06/16/2024 09:10:56 -76.00,-140.87 127.42 06/16/2024 09:12:08 -76.05,-140.14 127.39 20.19 72
4 06/18/2024 23:42:38 -75.88, 1.61 127.60 06/18/2024 23:42:20 -75.87, 1.72 127.62 3.28 18
5 06/19/2024 00:32:01 75.90, 169.23 52.41 06/19/2024 00:32:59 75.89, 169.13 52.41 2.69 58
6 06/21/2024 15:03:42 75.84, -48.48 52.35 06/21/2024 15:03:07 75.84, -48.59 52.35 2.98 35
7 06/21/2024 15:53:05 -75.93, 118.91 127.56 06/21/2024 15:53:47 -75.93, 119.02 127.57 3.07 42
8 06/24/2024 06:24:46 -75.88, -98.81 127.58 06/24/2024 06:23:56 -75.87, -98.73 127.58 2.50 50
9 06/24/2024 07:14:09 75.90, 68.77 52.45 06/24/2024 07:14:35 75.89, 68.67 52.44 3.25 26
10 06/26/2024 21:45:49 75.87,-148.99 52.50 06/26/2024 21:44:43 75.86,-148.96 52.50 0.83 66
11 06/26/2024 22:35:11 -75.90, 18.58 127.47 06/26/2024 22:35:24 -75.91, 18.51 127.46 2.21 13



Historial Predications of SNOs between AQUA and METOP-B
